AAL4523 KDFW-KMSP

Flight info

Callsign AAL4523
Flight time N/A
Altitude 37000
Route BLECO8 TUL J25 MCI ROKKK NITZR3
Aircraft B738/M-SDE2E3FGHIRWXY/LB1

Departure

Time 2026-05-07 12:03
Airport Dallas Fort Worth International Airport (KDFW)

Arrival

Time N/A
Airport Minneapolis–Saint Paul International Airport / Wold–Chamberlain Field (KMSP)
Time Latitude Longitude Altitude Speed Heading
2026-05-07 11:29 32.89658 -97.04569 598 ft 0 kts 90°
2026-05-07 11:52 32.89658 -97.04580 598 ft 2 kts 90°
2026-05-07 11:53 32.89658 -97.04597 599 ft 2 kts 91°
2026-05-07 11:53 32.89658 -97.04615 600 ft 2 kts 90°
2026-05-07 11:53 32.89660 -97.04633 601 ft 2 kts 112°
2026-05-07 11:53 32.89668 -97.04648 601 ft 2 kts 129°
2026-05-07 11:54 32.89679 -97.04660 602 ft 2 kts 148°
2026-05-07 11:54 32.89692 -97.04668 602 ft 2 kts 166°
2026-05-07 11:54 32.89702 -97.04669 602 ft 0 kts 178°
2026-05-07 11:54 32.89708 -97.04669 602 ft 0 kts 180°
2026-05-07 11:56 32.89705 -97.04669 602 ft 0 kts 176°
2026-05-07 11:56 32.89669 -97.04668 602 ft 8 kts 181°
2026-05-07 11:56 32.89634 -97.04668 601 ft 0 kts 178°
2026-05-07 11:57 32.89591 -97.04669 599 ft 14 kts 180°
2026-05-07 11:57 32.89480 -97.04669 595 ft 16 kts 178°
2026-05-07 11:57 32.89377 -97.04678 593 ft 12 kts 219°
2026-05-07 11:57 32.89342 -97.04759 594 ft 11 kts 204°
2026-05-07 11:58 32.89245 -97.04766 592 ft 15 kts 180°
2026-05-07 11:58 32.89131 -97.04768 588 ft 16 kts 180°
2026-05-07 11:58 32.89012 -97.04769 586 ft 17 kts 180°
2026-05-07 11:58 32.88891 -97.04769 583 ft 17 kts 180°
2026-05-07 11:59 32.88768 -97.04771 581 ft 17 kts 180°
2026-05-07 11:59 32.88642 -97.04770 578 ft 18 kts 180°
2026-05-07 11:59 32.88516 -97.04785 576 ft 18 kts 202°
2026-05-07 11:59 32.88389 -97.04806 573 ft 18 kts 181°
2026-05-07 12:00 32.88258 -97.04810 572 ft 18 kts 180°
2026-05-07 12:00 32.88135 -97.04807 572 ft 17 kts 178°
2026-05-07 12:00 32.88013 -97.04805 569 ft 17 kts 180°
2026-05-07 12:00 32.87921 -97.04828 569 ft 10 kts 229°
2026-05-07 12:01 32.87909 -97.04909 569 ft 9 kts 271°
2026-05-07 12:01 32.87909 -97.04961 568 ft 0 kts 270°
2026-05-07 12:01 32.87909 -97.04981 568 ft 8 kts 270°
2026-05-07 12:01 32.87910 -97.05064 566 ft 11 kts 275°
2026-05-07 12:02 32.87964 -97.05093 566 ft 2 kts 359°
2026-05-07 12:02 32.87973 -97.05093 567 ft 8 kts 359°
2026-05-07 12:02 32.88274 -97.05095 571 ft 76 kts
2026-05-07 12:02 32.89011 -97.05091 586 ft 132 kts
2026-05-07 12:03 32.90073 -97.05077 759 ft 164 kts
2026-05-07 12:03 32.91227 -97.05011 1347 ft 168 kts
2026-05-07 12:03 32.92416 -97.04905 1976 ft 174 kts
2026-05-07 12:03 32.93583 -97.04878 2671 ft 169 kts
2026-05-07 12:04 32.94746 -97.04885 3296 ft 167 kts
2026-05-07 12:04 32.95950 -97.04895 3628 ft 182 kts
2026-05-07 12:04 32.97207 -97.04865 4200 ft 184 kts
2026-05-07 12:04 32.98497 -97.04833 4776 ft 185 kts 360°
2026-05-07 12:05 32.99863 -97.04989 5064 ft 203 kts 351°
2026-05-07 12:05 33.01304 -97.05202 5416 ft 218 kts 354°
2026-05-07 12:05 33.02874 -97.05287 5753 ft 235 kts 357°
2026-05-07 12:05 33.04569 -97.05307 6115 ft 250 kts 358°
2026-05-07 12:06 33.06356 -97.05318 6619 ft 259 kts 356°
2026-05-07 12:06 33.08174 -97.05433 7179 ft 266 kts 351°
2026-05-07 12:06 33.10027 -97.05687 7735 ft 272 kts 348°
2026-05-07 12:06 33.11906 -97.05998 8440 ft 273 kts 347°
2026-05-07 12:07 33.13788 -97.06305 9126 ft 276 kts 346°
2026-05-07 12:07 33.15695 -97.06601 9806 ft 279 kts 346°
2026-05-07 12:07 33.17633 -97.06889 10399 ft 286 kts 346°
2026-05-07 12:07 33.19640 -97.07188 10797 ft 299 kts 346°
2026-05-07 12:08 33.21732 -97.07494 11431 ft 305 kts 345°
2026-05-07 12:08 33.23837 -97.07796 12173 ft 306 kts 345°
2026-05-07 12:08 33.25966 -97.08103 12841 ft 310 kts 344°
2026-05-07 12:08 33.28102 -97.08415 13548 ft 312 kts 343°
2026-05-07 12:09 33.30260 -97.08730 14256 ft 314 kts 343°
2026-05-07 12:09 33.32443 -97.09051 14914 ft 318 kts 343°
2026-05-07 12:09 33.34654 -97.09382 15484 ft 324 kts 343°
2026-05-07 12:09 33.36900 -97.09714 16143 ft 328 kts 342°
2026-05-07 12:10 33.39185 -97.10049 16714 ft 333 kts 342°
2026-05-07 12:10 33.41464 -97.10384 17316 ft 336 kts 342°
2026-05-07 12:10 33.43827 -97.10684 17809 ft 346 kts 345°
2026-05-07 12:10 33.46262 -97.10757 18450 ft 354 kts 350°
2026-05-07 12:11 33.48749 -97.10586 18975 ft 364 kts 353°
2026-05-07 12:11 33.51282 -97.10277 19574 ft 367 kts 355°
2026-05-07 12:11 33.53819 -97.09920 20176 ft 369 kts 355°
2026-05-07 12:11 33.56382 -97.09558 20660 ft 373 kts 354°
2026-05-07 12:12 33.58962 -97.09204 21194 ft 375 kts 354°
2026-05-07 12:12 33.61568 -97.08857 21692 ft 377 kts 353°
2026-05-07 12:12 33.64202 -97.08516 22083 ft 383 kts 353°
2026-05-07 12:12 33.66848 -97.08175 22679 ft 381 kts 353°
2026-05-07 12:13 33.69493 -97.07832 23114 ft 385 kts 352°
2026-05-07 12:13 33.72146 -97.07497 23527 ft 388 kts 352°
2026-05-07 12:13 33.74844 -97.07156 23985 ft 390 kts 352°
2026-05-07 12:13 33.77589 -97.06809 24291 ft 397 kts 352°
2026-05-07 12:14 33.80354 -97.06464 24660 ft 402 kts 352°
2026-05-07 12:14 33.83130 -97.06110 25176 ft 403 kts 352°
2026-05-07 12:14 33.85922 -97.05751 25579 ft 406 kts 352°
2026-05-07 12:14 33.88734 -97.05395 25945 ft 410 kts 352°
2026-05-07 12:15 33.91612 -97.05029 26319 ft 414 kts 352°
2026-05-07 12:15 33.94472 -97.04663 26718 ft 417 kts 352°
2026-05-07 12:15 33.97364 -97.04294 27112 ft 419 kts 351°
2026-05-07 12:15 34.00274 -97.03922 27386 ft 425 kts 352°
2026-05-07 12:16 34.03234 -97.03544 27758 ft 427 kts 351°
2026-05-07 12:16 34.06183 -97.03165 28229 ft 427 kts 351°
2026-05-07 12:16 34.09152 -97.02784 28500 ft 432 kts 351°
2026-05-07 12:16 34.12171 -97.02400 28736 ft 437 kts 351°
2026-05-07 12:17 34.15196 -97.02013 29103 ft 439 kts 351°
2026-05-07 12:17 34.18267 -97.01620 29466 ft 440 kts 351°
2026-05-07 12:17 34.21298 -97.01224 29827 ft 442 kts 351°
2026-05-07 12:17 34.24397 -97.00827 30163 ft 443 kts 351°
2026-05-07 12:18 34.27438 -97.00433 30432 ft 447 kts 351°
2026-05-07 12:18 34.30545 -97.00035 30726 ft 449 kts 351°
2026-05-07 12:18 34.33684 -96.99622 31049 ft 453 kts 352°
2026-05-07 12:18 34.36798 -96.98992 31373 ft 465 kts 358°
2026-05-07 12:19 34.39992 -96.97955 31601 ft 480 kts
2026-05-07 12:19 34.43164 -96.96499 31882 ft 493 kts 11°
2026-05-07 12:19 34.46268 -96.94683 32264 ft 500 kts 16°
2026-05-07 12:19 34.49370 -96.92641 32410 ft 508 kts 18°
2026-05-07 12:20 34.52410 -96.90533 32793 ft 509 kts 19°
2026-05-07 12:20 34.55495 -96.88372 33020 ft 512 kts 19°
2026-05-07 12:20 34.58561 -96.86240 33234 ft 515 kts 18°
2026-05-07 12:20 34.61702 -96.84090 33472 ft 517 kts 18°
2026-05-07 12:21 34.64820 -96.81982 33798 ft 517 kts 18°
2026-05-07 12:21 34.68000 -96.79859 34101 ft 518 kts 17°
2026-05-07 12:21 34.71140 -96.77779 34428 ft 518 kts 17°
2026-05-07 12:21 34.74333 -96.75678 34730 ft 519 kts 16°
2026-05-07 12:22 34.77524 -96.73583 35222 ft 515 kts 17°
2026-05-07 12:22 34.80646 -96.71535 35583 ft 514 kts 16°
2026-05-07 12:22 34.83835 -96.69445 35857 ft 515 kts 16°
2026-05-07 12:22 34.86998 -96.67374 36224 ft 514 kts 16°
2026-05-07 12:23 34.90147 -96.65314 36471 ft 516 kts 16°
2026-05-07 12:23 34.93356 -96.63213 36763 ft 516 kts 15°
2026-05-07 12:23 34.96547 -96.61118 37113 ft 514 kts 15°
2026-05-07 12:24 35.02977 -96.56904 37141 ft 524 kts 15°
2026-05-07 12:24 35.09428 -96.52674 37144 ft 531 kts 15°
2026-05-07 12:25 35.15916 -96.48386 37143 ft 529 kts 16°
2026-05-07 12:25 35.22375 -96.44110 37136 ft 531 kts 16°
2026-05-07 12:26 35.28859 -96.39805 37140 ft 529 kts 16°
2026-05-07 12:26 35.35322 -96.35510 37143 ft 528 kts 16°
2026-05-07 12:27 35.41754 -96.31233 37139 ft 529 kts 17°
2026-05-07 12:27 35.48209 -96.26936 37139 ft 529 kts 17°
2026-05-07 12:28 35.54655 -96.22634 37137 ft 528 kts 17°
2026-05-07 12:28 35.61104 -96.18325 37140 ft 529 kts 17°
2026-05-07 12:29 35.67565 -96.14004 37139 ft 531 kts 17°
2026-05-07 12:29 35.74009 -96.09667 37142 ft 526 kts 16°
2026-05-07 12:30 35.80427 -96.05357 37129 ft 531 kts 16°
2026-05-07 12:30 35.86907 -96.00998 37128 ft 529 kts 16°
2026-05-07 12:31 35.93324 -95.96659 37128 ft 526 kts 16°
2026-05-07 12:31 35.99757 -95.92320 37127 ft 530 kts 17°
2026-05-07 12:32 36.06242 -95.87936 37129 ft 530 kts 17°
2026-05-07 12:32 36.12659 -95.83567 37131 ft 524 kts 17°
2026-05-07 12:33 36.22432 -95.77908 37130 ft 506 kts
2026-05-07 12:33 36.29041 -95.75440 37127 ft 494 kts
2026-05-07 12:34 36.35673 -95.73350 37127 ft 490 kts
2026-05-07 12:34 36.42275 -95.71305 37128 ft 489 kts
2026-05-07 12:35 36.48900 -95.69214 37120 ft 492 kts
2026-05-07 12:35 36.55471 -95.67069 37120 ft 488 kts
2026-05-07 12:36 36.62043 -95.64913 37119 ft 493 kts
2026-05-07 12:36 36.68653 -95.62734 37119 ft 489 kts
2026-05-07 12:37 36.75207 -95.60554 37120 ft 488 kts
2026-05-07 12:37 36.81759 -95.58390 37116 ft 488 kts
2026-05-07 12:38 36.88284 -95.56216 37120 ft 484 kts
2026-05-07 12:38 36.94829 -95.54057 37121 ft 490 kts
2026-05-07 12:39 37.01384 -95.51876 37120 ft 485 kts
2026-05-07 12:39 37.07855 -95.49703 37123 ft 483 kts
2026-05-07 12:40 37.14375 -95.47523 37120 ft 483 kts
2026-05-07 12:40 37.20878 -95.45355 37119 ft 485 kts
2026-05-07 12:41 37.27334 -95.43182 37116 ft 480 kts
2026-05-07 12:41 37.33747 -95.41025 37115 ft 477 kts
2026-05-07 12:42 37.40175 -95.38866 37114 ft 478 kts
2026-05-07 12:42 37.46587 -95.36710 36958 ft 480 kts
2026-05-07 12:43 37.49799 -95.35628 37089 ft 481 kts
2026-05-07 12:43 37.53066 -95.34528 37127 ft 481 kts
2026-05-07 12:43 37.59498 -95.32346 37111 ft 477 kts
2026-05-07 12:44 37.65877 -95.30179 37121 ft 478 kts
2026-05-07 12:44 37.72287 -95.28009 37117 ft 478 kts
2026-05-07 12:45 37.78681 -95.25834 37128 ft 477 kts
2026-05-07 12:45 37.85066 -95.23658 37112 ft 475 kts
2026-05-07 12:46 37.91477 -95.21467 37111 ft 474 kts
2026-05-07 12:46 37.97792 -95.19299 37111 ft 472 kts
2026-05-07 12:47 38.04111 -95.17139 37115 ft 473 kts
2026-05-07 12:47 38.10515 -95.14947 37101 ft 473 kts
2026-05-07 12:48 38.16804 -95.12779 37099 ft 470 kts
2026-05-07 12:48 38.23169 -95.10590 37095 ft 470 kts
2026-05-07 12:49 38.29458 -95.08420 37089 ft 468 kts
2026-05-07 12:49 38.35753 -95.06245 37088 ft 469 kts
2026-05-07 12:50 38.42042 -95.04069 37084 ft 468 kts
2026-05-07 12:50 38.48296 -95.01896 37087 ft 466 kts
2026-05-07 12:51 38.54545 -94.99731 37087 ft 469 kts
2026-05-07 12:51 38.60804 -94.97550 37083 ft 466 kts
2026-05-07 12:52 38.67077 -94.95364 37078 ft 468 kts
2026-05-07 12:52 38.73335 -94.93175 37082 ft 465 kts
2026-05-07 12:53 38.79580 -94.90991 37075 ft 466 kts
2026-05-07 12:53 38.85859 -94.88788 37081 ft 465 kts
2026-05-07 12:54 38.92089 -94.86603 37081 ft 467 kts
2026-05-07 12:54 38.98349 -94.84394 37073 ft 464 kts
2026-05-07 12:55 39.04541 -94.82207 37067 ft 462 kts
2026-05-07 12:55 39.10784 -94.80006 37073 ft 466 kts
2026-05-07 12:56 39.16992 -94.77808 37056 ft 462 kts
2026-05-07 12:56 39.23187 -94.75613 37072 ft 463 kts
2026-05-07 12:57 39.29389 -94.73500 37055 ft 459 kts
2026-05-07 12:57 39.35627 -94.72087 37056 ft 450 kts 358°
2026-05-07 12:58 39.41843 -94.70985 37056 ft 450 kts 358°
2026-05-07 12:58 39.48056 -94.69888 37054 ft 452 kts 358°
2026-05-07 12:59 39.54266 -94.68741 37048 ft 448 kts 358°
2026-05-07 12:59 39.60406 -94.67574 37041 ft 448 kts 358°
2026-05-07 13:00 39.66593 -94.66391 37033 ft 451 kts 358°
2026-05-07 13:00 39.72769 -94.65198 37027 ft 447 kts 358°
2026-05-07 13:01 39.78932 -94.64002 37029 ft 448 kts 358°
2026-05-07 13:01 39.85078 -94.62814 37032 ft 450 kts 358°
2026-05-07 13:02 39.91261 -94.61607 37023 ft 446 kts 358°
2026-05-07 13:02 39.97391 -94.60415 37021 ft 449 kts 358°
2026-05-07 13:03 40.03539 -94.59215 37022 ft 447 kts 358°
2026-05-07 13:03 40.09700 -94.58009 37022 ft 446 kts 358°
2026-05-07 13:04 40.15845 -94.56808 37020 ft 446 kts 358°
2026-05-07 13:04 40.21944 -94.55611 37019 ft 446 kts 358°
2026-05-07 13:05 40.28090 -94.54402 37013 ft 445 kts 358°
2026-05-07 13:05 40.34210 -94.53197 37008 ft 448 kts 358°
2026-05-07 13:06 40.40379 -94.51976 37013 ft 446 kts 358°
2026-05-07 13:06 40.46499 -94.50768 37007 ft 446 kts 358°
2026-05-07 13:07 40.52630 -94.49554 37002 ft 445 kts 358°
2026-05-07 13:07 40.58738 -94.48341 36998 ft 445 kts 358°
2026-05-07 13:08 40.64846 -94.47130 37003 ft 446 kts 358°
2026-05-07 13:08 40.71011 -94.45901 36993 ft 446 kts 358°
2026-05-07 13:09 40.77105 -94.44685 36985 ft 445 kts 358°
2026-05-07 13:09 40.83229 -94.43460 36982 ft 445 kts 358°
2026-05-07 13:10 40.89347 -94.42236 36979 ft 445 kts 358°
2026-05-07 13:10 40.95454 -94.41009 36982 ft 446 kts 358°
2026-05-07 13:11 41.01569 -94.39783 36978 ft 444 kts 358°
2026-05-07 13:11 41.07689 -94.38549 36978 ft 446 kts 358°
2026-05-07 13:12 41.13796 -94.37315 36968 ft 443 kts 358°
2026-05-07 13:12 41.19865 -94.36086 36977 ft 443 kts 358°
2026-05-07 13:13 41.25978 -94.34849 36958 ft 442 kts 359°
2026-05-07 13:13 41.32061 -94.33617 36961 ft 443 kts 359°
2026-05-07 13:14 41.38145 -94.32378 36961 ft 442 kts 359°
2026-05-07 13:14 41.44224 -94.31142 36958 ft 442 kts 359°
2026-05-07 13:15 41.50264 -94.29909 36987 ft 439 kts 359°
2026-05-07 13:15 41.56281 -94.28674 36956 ft 436 kts 359°
2026-05-07 13:16 41.62271 -94.27454 36953 ft 440 kts 359°
2026-05-07 13:16 41.68294 -94.26219 36950 ft 437 kts 359°
2026-05-07 13:17 41.74316 -94.24982 36955 ft 437 kts 359°
2026-05-07 13:17 41.80307 -94.23746 36947 ft 436 kts 359°
2026-05-07 13:18 41.86297 -94.22510 36950 ft 438 kts 359°
2026-05-07 13:18 41.92319 -94.21267 36957 ft 438 kts 359°
2026-05-07 13:19 41.98326 -94.20020 36936 ft 437 kts 359°
2026-05-07 13:19 42.04296 -94.18780 36943 ft 436 kts 360°
2026-05-07 13:20 42.10283 -94.17535 36924 ft 436 kts 360°
2026-05-07 13:20 42.16256 -94.16289 36924 ft 435 kts 360°
2026-05-07 13:21 42.22245 -94.15037 36932 ft 436 kts 360°
2026-05-07 13:21 42.28248 -94.13783 36926 ft 437 kts 360°
2026-05-07 13:22 42.34234 -94.12528 36924 ft 437 kts 360°
2026-05-07 13:22 42.40255 -94.11268 36918 ft 437 kts
2026-05-07 13:23 42.46249 -94.10005 36927 ft 436 kts
2026-05-07 13:23 42.52228 -94.08745 36932 ft 436 kts
2026-05-07 13:24 42.58223 -94.07400 36931 ft 440 kts
2026-05-07 13:24 42.64094 -94.04864 36932 ft 454 kts 15°
2026-05-07 13:25 42.69745 -94.00875 36933 ft 461 kts 21°
2026-05-07 13:25 42.75317 -93.96472 36933 ft 462 kts 22°
2026-05-07 13:26 42.80851 -93.92049 36930 ft 461 kts 21°
2026-05-07 13:26 42.86397 -93.87658 36925 ft 462 kts 21°
2026-05-07 13:27 42.91933 -93.83349 36928 ft 462 kts 21°
2026-05-07 13:27 42.97450 -93.79079 36711 ft 446 kts 21°
2026-05-07 13:28 43.00129 -93.77003 36332 ft 441 kts 20°
2026-05-07 13:28 43.02774 -93.74962 35835 ft 445 kts 20°
2026-05-07 13:28 43.05510 -93.72862 35218 ft 453 kts 20°
2026-05-07 13:28 43.08235 -93.70773 34668 ft 458 kts 20°
2026-05-07 13:29 43.11025 -93.68626 34162 ft 462 kts 21°
2026-05-07 13:29 43.13822 -93.66463 33649 ft 460 kts 21°
2026-05-07 13:29 43.16606 -93.64299 33159 ft 458 kts 21°
2026-05-07 13:29 43.19350 -93.62161 32651 ft 456 kts 21°
2026-05-07 13:30 43.22100 -93.60017 32136 ft 455 kts 21°
2026-05-07 13:30 43.24818 -93.57935 31625 ft 447 kts 19°
2026-05-07 13:30 43.27575 -93.56145 31112 ft 430 kts 12°
2026-05-07 13:30 43.30362 -93.55026 30623 ft 409 kts
2026-05-07 13:31 43.33124 -93.54487 30141 ft 395 kts 358°
2026-05-07 13:31 43.35829 -93.54194 29666 ft 385 kts 356°
2026-05-07 13:31 43.38436 -93.54004 29149 ft 376 kts 355°
2026-05-07 13:31 43.41023 -93.53842 28706 ft 367 kts 355°
2026-05-07 13:32 43.43522 -93.53682 28244 ft 360 kts 355°
2026-05-07 13:32 43.46005 -93.53507 27792 ft 352 kts 356°
2026-05-07 13:32 43.48398 -93.53323 27375 ft 344 kts 356°
2026-05-07 13:32 43.50795 -93.53131 26941 ft 342 kts 356°
2026-05-07 13:33 43.53136 -93.52940 26529 ft 340 kts 356°
2026-05-07 13:33 43.55496 -93.52743 26096 ft 338 kts 357°
2026-05-07 13:33 43.57825 -93.52545 25677 ft 336 kts 357°
2026-05-07 13:33 43.60134 -93.52345 25262 ft 333 kts 357°
2026-05-07 13:34 43.62458 -93.52144 24832 ft 336 kts 358°
2026-05-07 13:34 43.67207 -93.51739 23955 ft 351 kts 358°
2026-05-07 13:34 43.69669 -93.51527 23504 ft 357 kts 359°
2026-05-07 13:35 43.72161 -93.51308 23032 ft 354 kts 359°
2026-05-07 13:35 43.74578 -93.51086 22594 ft 343 kts 359°
2026-05-07 13:35 43.76889 -93.50872 22177 ft 332 kts 359°
2026-05-07 13:35 43.79163 -93.50665 21754 ft 323 kts 359°
2026-05-07 13:36 43.81378 -93.50467 21353 ft 320 kts 359°
2026-05-07 13:36 43.83617 -93.50274 20947 ft 325 kts 359°
2026-05-07 13:36 43.85899 -93.50079 20532 ft 330 kts 359°
2026-05-07 13:36 43.88207 -93.49879 20124 ft 334 kts 359°
2026-05-07 13:37 43.90489 -93.49676 19685 ft 327 kts 359°
2026-05-07 13:37 43.92709 -93.49474 19279 ft 316 kts 359°
2026-05-07 13:37 43.94876 -93.49275 18896 ft 306 kts 359°
2026-05-07 13:37 43.96979 -93.49082 18512 ft 297 kts 359°
2026-05-07 13:38 43.99007 -93.48871 18151 ft 296 kts 360°
2026-05-07 13:38 44.01087 -93.48636 17758 ft 304 kts
2026-05-07 13:38 44.03207 -93.48388 17351 ft 301 kts 360°
2026-05-07 13:38 44.05251 -93.48144 16976 ft 292 kts 360°
2026-05-07 13:39 44.07252 -93.47910 16620 ft 291 kts 359°
2026-05-07 13:39 44.09294 -93.47681 16232 ft 299 kts 360°
2026-05-07 13:39 44.11375 -93.47446 15848 ft 294 kts 360°
2026-05-07 13:39 44.13382 -93.47212 15481 ft 286 kts 359°
2026-05-07 13:40 44.15337 -93.46986 15118 ft 288 kts 359°
2026-05-07 13:40 44.17358 -93.46712 14733 ft 295 kts
2026-05-07 13:40 44.19365 -93.46166 14347 ft 292 kts
2026-05-07 13:40 44.21277 -93.45283 13989 ft 287 kts 15°
2026-05-07 13:41 44.23150 -93.44241 13630 ft 295 kts 16°
2026-05-07 13:41 44.25047 -93.43151 13249 ft 296 kts 16°
2026-05-07 13:41 44.26946 -93.42060 12877 ft 293 kts 16°
2026-05-07 13:41 44.28809 -93.41000 12506 ft 290 kts 16°
2026-05-07 13:42 44.30666 -93.39954 12143 ft 288 kts 16°
2026-05-07 13:42 44.32508 -93.38923 11776 ft 285 kts 15°
2026-05-07 13:42 44.34345 -93.37896 11415 ft 283 kts 15°
2026-05-07 13:42 44.36158 -93.36870 11057 ft 281 kts 17°
2026-05-07 13:43 44.37931 -93.35730 10700 ft 283 kts 19°
2026-05-07 13:43 44.39728 -93.34468 10337 ft 288 kts 21°
2026-05-07 13:43 44.41495 -93.33187 10018 ft 286 kts 21°
2026-05-07 13:43 44.43227 -93.31922 9965 ft 273 kts 21°
2026-05-07 13:44 44.44881 -93.30708 9961 ft 270 kts 21°
2026-05-07 13:44 44.46558 -93.29462 9958 ft 273 kts 24°
2026-05-07 13:44 44.48095 -93.27856 9959 ft 281 kts 40°
2026-05-07 13:44 44.49287 -93.25671 9977 ft 287 kts 51°
2026-05-07 13:45 44.50355 -93.23278 9922 ft 285 kts 53°
2026-05-07 13:45 44.51373 -93.20962 9726 ft 279 kts 52°
2026-05-07 13:45 44.52425 -93.18662 9307 ft 285 kts 52°
2026-05-07 13:45 44.53513 -93.16351 8970 ft 282 kts 51°
2026-05-07 13:46 44.54600 -93.14072 8628 ft 280 kts 51°
2026-05-07 13:46 44.55681 -93.11810 8299 ft 278 kts 51°
2026-05-07 13:46 44.56752 -93.09570 7971 ft 276 kts 52°
2026-05-07 13:46 44.57818 -93.07338 7643 ft 275 kts 52°